Regional Weather Roundup
Issued by NWS

Home | Current Version | Previous Version | Text Only | Print | Product List | Glossary Off
Versions: 1 2 3 4 5 6 7 8 9 10 11 12 13 14 15 16 17 18 19 20 21 22 23 24 25 26

000
ASUS45 KTFX 221910
RWRMT
MONTANA REGIONAL WEATHER ROUNDUP
NATIONAL WEATHER SERVICE GREAT FALLS MT
100 PM MDT TUE AUG 22 2017

NOTE: "FAIR" INDICATES FEW OR NO CLOUDS BELOW 12000 FEET WITH NO
SIGNIFICANT WEATHER AND/OR OBSTRUCTIONS TO VISIBILITY.

MTZ001>007-043-222000-
WEST OF THE DIVIDE

CITY           SKY/WX    TMP DP  RH WIND       PRES   REMARKS
KALISPELL      SUNNY     78  44  29 S6        30.11F
MISSOULA       SUNNY     75  40  28 CALM      30.13F HAZE
BUTTE          SUNNY     81  31  16 N6        30.24F
MULLAN PASS    SUNNY     72  36  26 VRB5      30.27F
ANACONDA         N/A     82  32  16 SE3       30.19F
DEER LODGE       N/A     75  37  25 NE3       30.20F
EUREKA           N/A     79  43  27 MISG      30.10F
HAMILTON         N/A     73  45  35 N5        30.14F
LIBBY            N/A     81  43  26 N3        30.07F
RONAN            N/A     79  53  40 CALM      30.16F
$$

MTZ008-052>055-222000-
SOUTHWEST MONTANA

CITY           SKY/WX    TMP DP  RH WIND       PRES   REMARKS
BOZEMAN        SUNNY     78  41  26 N5        30.20F
DILLON         SUNNY     79  36  21 N3        30.21F
W YELLOWSTONE  SUNNY     75  32  20 SW8G18    30.34F
ENNIS          SUNNY     81  34  18 VRB6      30.26F
THREE FORKS      N/A     78  38  23 CALM      30.16F
$$

MTZ009-010-012-014-046-048-049-054-222000-
EAST SLOPES AND CENTRAL MONTANA

CITY           SKY/WX    TMP DP  RH WIND       PRES   REMARKS
CUT BANK       SUNNY     79  37  22 VRB7      30.14F
GREAT FALLS    SUNNY     81  34  18 VRB3      30.14F
MALMSTROM AFB  SUNNY     79  37  21 NW5       30.13F
HELENA         SUNNY     80  42  25 VRB5      30.14F
AUGUSTA          N/A     78  36  22 SE6       30.16F
BOWMANS CRNR     N/A     79  30  16 SE7       30.14F
CHOTEAU          N/A     81  37  21 VRB5      30.16F
FAIRFIELD        N/A     79  34  19 S5        30.14F
POWER            N/A     78  35  20 E3        30.13F
RAYNESFORD       N/A     81  34  18 NW9       30.14F
ULM              N/A     81  36  19 SW5       30.13F
$$

MTZ011-013-016-021-045-047-050-051-222000-
NORTH CENTRAL MONTANA

CITY           SKY/WX    TMP DP  RH WIND       PRES   REMARKS
HAVRE          SUNNY     83  36  18 VRB3      30.10F
LEWISTOWN      SUNNY     81  34  18 CALM      30.16F
N BAR RANCH      N/A     81  30  16 S8G14     30.21F
CHINOOK          N/A     81  39  22 NE6       30.10F
DENTON           N/A     80  35  19 E9        30.11F
GEYSER           N/A     80  33  18 E5        30.15F
GRASS RANGE      N/A     81  33  18 E12       30.13F
JUDITH GAP       N/A     78  33  19 S12G17    30.19F
WINIFRED         N/A     80  35  19 E12G22    30.14F
$$

MTZ017>020-022>027-061-062-222000-
NORTHEAST MONTANA

CITY           SKY/WX    TMP DP  RH WIND       PRES   REMARKS
GLASGOW        SUNNY     79  34  19 VRB5      30.14F
JORDAN           N/A     81  34  18 VRB3      30.13F
SIDNEY         SUNNY     77  35  21 CALM      30.17F
WOLF POINT     SUNNY     81  35  19 E6        30.15F
MALTA          SUNNY     81  36  19 VRB5      30.12F
PLENTYWOOD       N/A     75  37  25 CALM      30.16F
$$

MTZ028>42-056>058-222000-
SOUTHCENTRAL AND SOUTHEAST MONTANA

CITY           SKY/WX    TMP DP  RH WIND       PRES   REMARKS
BAKER          SUNNY     80  36  20 VRB5      30.19F
BILLINGS       MOSUNNY   80  38  22 SE5       30.16F
LIVINGSTON     SUNNY     82  34  17 E6        30.18F
MILES CITY     SUNNY     83  35  18 VRB3      30.13F
BIG TIMBER     SUNNY     77  37  24 E6        30.21F
HARLOWTON        N/A     79  32  18 MISG      30.18F
LAUREL           N/A     78  38  23 CALM      30.14F
$$

REGIONAL REPORTS...DAKOTAS

CITY           SKY/WX    TMP DP  RH WIND       PRES   REMARKS
WILLISTON      SUNNY     77  38  24 S9        30.17F
MINOT          SUNNY     77  38  24 NW13G22   30.14F
DICKINSON      SUNNY     75  38  26 VRB5      30.18F
BEACH            N/A     77  34  20 CALM      30.22F
CROSBY           N/A     77  36  22 VRB7G16   30.16F
TIOGA            N/A     73  36  25 N9G16     30.19S
WATFORD CITY     N/A     75  34  22 VRB3      30.17F
BISMARCK       SUNNY     76  39  26 W8        30.18F
GRAND FORKS    MOSUNNY   75  42  30 NW23G29   30.05S
FARGO          MOSUNNY   75  44  33 NW22G29   30.08S
BUFFALO SD       N/A     81  41  24 S12       30.13F
RAPID CITY     SUNNY     81  44  27 S13G22    30.19F
$$

REGIONAL REPORTS...WYOMING/IDAHO/WASHINGTON

CITY           SKY/WX    TMP DP  RH WIND       PRES   REMARKS
GILLETTE       SUNNY     82  39  21 VRB6G16   30.20F
SHERIDAN       SUNNY     84  33  16 VRB5      30.19F
BUFFALO WY     SUNNY     82  29  14 VRB6      30.25F
CODY           SUNNY     81  35  19 E9        30.23F
YELLOWSTONE LA   N/A     65  43  44 VRB5      30.44F
IDAHO FALLS    SUNNY     81  36  19 VRB3      30.23F
SALMON         SUNNY     75  37  25 NW3       30.17F
BOISE          SUNNY     85  44  23 CALM      30.11F
SPOKANE        MOSUNNY   82  48  30 VRB3      30.06F
$$

REGIONAL REPORTS...ALBERTA

CITY           SKY/WX    TMP DP  RH WIND       PRES   REMARKS
EDMONTON       MOSUNNY   73  54  49 W9        30.05F
CALGARY        MOSUNNY   77  46  33 E3        30.12F
LETHBRIDGE     SUNNY     79  41  25 VRB7      30.10F
MEDICINE HAT   MOSUNNY   82  41  23 VRB5      30.07F
$$

REGIONAL REPORTS...SASKATCHEWAN

CITY           SKY/WX    TMP DP  RH WIND       PRES   REMARKS
SWIFT CURRENT  MOSUNNY   79  39  24 W12       30.11F
REGINA         PTSUNNY   73  36  25 W3        30.13F
SASKATOON      PTSUNNY   72  46  40 W9        30.07F
$$




USA.gov is the U.S. government's official web portal to all federal, state and local government web resources and services.